Juliana Airport, Sint Maarten

5:12 PM AST on March 28, 2017 (GMT -0400)
Princess Juliana International

Weather History for TNCM - September, 2013

Change the Weather History Date:

Monday, September 23, 2013

  Actual Average Record
Temperature  
Mean Temperature 84 °F -  
Max Temperature 89 °F 86 °F 89 °F (2000)
Min Temperature 80 °F 76 °F 73 °F (2008)
Cooling Degree Days 20    
Growing Degree Days 34 (Base 50)    
Moisture  
Dew Point 76 °F    
Average Humidity 74    
Maximum Humidity 84    
Minimum Humidity 62    
Precipitation  
Precipitation 0.16 in 0.15 in - ()
Sea Level Pressure  
Sea Level Pressure 30.00 in    
Wind  
Wind Speed 8 mph ()    
Max Wind Speed 12 mph    
Max Gust Speed 22 mph    
Visibility 7.2 miles    
Events Rain    
Averages and records for this station are not official NWS values.
T = Trace of Precipitation, MM = Missing Value Source: Averaged Metar Reports

Daily Weather History Graph

Daily Weather History Graph

Search for Another Location

Airport or City:

Trip Planner

Search our weather history database for the weather conditions in past years. The results will help you decide how hot, cold, wet, or windy it might be!

Date:

Astronomy

Sep. 23, 2013 Rise Set
Actual Time 6:01 AM AST 6:07 PM AST
Civil Twilight 5:39 AM AST 6:29 PM AST
Nautical Twilight 5:14 AM AST 6:54 PM AST
Astronomical Twilight 4:49 AM AST 7:19 PM AST
Moon 9:16 PM AST (9/23) 9:38 AM AST (9/23)
Length of Visible Light 12h 49m
Length of Day
12h 06m
Waning Gibbous, 81% of the Moon is Illuminated
Sep 23
Waning Gibbous
Sep 26
Last Quarter
Oct 4
New
Oct 11
First Quarter
Oct 18
Full

Hourly Weather History & Observations

Time (AST) Temp. Heat Index Dew Point Humidity Pressure Visibility Wind Dir Wind Speed Gust Speed Precip Events Conditions
12:00 AM 84.2 °F 92.3 °F 75.2 °F 74% 29.98 in 6.2 mi East 9.2 mph - N/A   Partly Cloudy
1:00 AM 84.2 °F 92.3 °F 75.2 °F 74% 29.98 in 6.2 mi East 8.1 mph - N/A   Partly Cloudy
2:00 AM 83 °F - 76 °F 73% 29.98 in 16 mi East 9.2 mph - -   Scattered Clouds
2:00 AM 84.2 °F 92.3 °F 75.2 °F 74% 29.98 in 6.2 mi East 9.2 mph - N/A   Partly Cloudy
3:00 AM 84.2 °F 92.3 °F 75.2 °F 74% 29.98 in 6.2 mi East 10.4 mph - N/A   Partly Cloudy
4:00 AM 84.2 °F 92.3 °F 75.2 °F 74% 29.98 in 6.2 mi East 9.2 mph - N/A   Partly Cloudy
5:00 AM 83 °F - 76 °F 74% 29.99 in 16 mi ESE 10.4 mph - -   Scattered Clouds
5:00 AM 84.2 °F 92.3 °F 75.2 °F 74% 29.98 in 6.2 mi East 10.4 mph - N/A   Partly Cloudy
6:00 AM 84.2 °F 94.1 °F 77.0 °F 79% 29.98 in 6.2 mi East 10.4 mph - N/A   Scattered Clouds
7:00 AM 84.2 °F 94.1 °F 77.0 °F 79% 30.01 in 6.2 mi ESE 8.1 mph - N/A   Scattered Clouds
8:00 AM 84 °F - 77 °F 74% 30.03 in 37 mi ESE 9.2 mph - - Rain Light Rain Showers
8:00 AM 84.2 °F 94.1 °F 77.0 °F 79% 30.01 in 6.2 mi ESE 9.2 mph - N/A Rain Light Rain Showers
9:00 AM 86.0 °F 96.9 °F 77.0 °F 74% 30.04 in 6.2 mi SE 8.1 mph - N/A   Scattered Clouds
10:00 AM 87.8 °F 97.6 °F 75.2 °F 66% 30.04 in 6.2 mi SE 10.4 mph - N/A   Scattered Clouds
11:00 AM 88 °F - 77 °F 62% 30.04 in 37 mi SE 11.5 mph - -   Partly Cloudy
11:00 AM 87.8 °F 99.7 °F 77.0 °F 70% 30.04 in 6.2 mi SE 11.5 mph - N/A   Scattered Clouds
12:00 PM 87.8 °F 99.7 °F 77.0 °F 70% 30.01 in 6.2 mi SE 10.4 mph - N/A   Scattered Clouds
1:00 PM 87.8 °F 99.7 °F 77.0 °F 70% 30.01 in 6.2 mi SSE 11.5 mph - N/A   Mostly Cloudy
2:00 PM - - 77 °F % 29.99 in 1 mi NNE 9.2 mph - -  
2:00 PM 87.8 °F 99.7 °F 77.0 °F 70% 29.98 in 6.2 mi SE 10.4 mph - N/A Rain Rain Showers
3:00 PM 87.8 °F 99.7 °F 77.0 °F 70% 29.98 in 6.2 mi SE 11.5 mph - N/A   Scattered Clouds
4:00 PM 86.0 °F 96.9 °F 77.0 °F 74% 29.98 in 6.2 mi ESE 8.1 mph - N/A   Scattered Clouds
5:00 PM 86 °F - 77 °F 69% 29.98 in 31 mi ESE 8.1 mph - -   Partly Cloudy
5:00 PM 86.0 °F 96.9 °F 77.0 °F 74% 29.95 in 6.2 mi ESE 8.1 mph - N/A   Scattered Clouds
6:00 PM 84.2 °F 94.1 °F 77.0 °F 79% 29.98 in 6.2 mi East 8.1 mph - N/A Rain Light Rain Showers
7:00 PM 84.2 °F 94.1 °F 77.0 °F 79% 29.98 in 6.2 mi East 6.9 mph - N/A   Scattered Clouds
8:00 PM 81 °F - 74 °F 75% 30.02 in 9 mi ESE 8.1 mph - - Rain Light Rain Showers
8:00 PM 80.6 °F 86.2 °F 75.2 °F 84% 30.01 in 6.2 mi Variable 8.1 mph 21.9 mph N/A Rain Light Rain Showers
9:00 PM 84.2 °F 94.1 °F 77.0 °F 79% 30.01 in 6.2 mi East 9.2 mph - N/A   Scattered Clouds
10:00 PM 84.2 °F 92.3 °F 75.2 °F 74% 30.01 in 6.2 mi ESE 11.5 mph - N/A   Scattered Clouds
11:00 PM 83 °F - 75 °F 71% 30.03 in 19 mi SE 9.2 mph - -   Partly Cloudy
11:00 PM 82.4 °F 89.5 °F 75.2 °F 79% 30.01 in 6.2 mi SE 9.2 mph - N/A   Scattered Clouds